| time (UTC) | temp F | wind direction | speed knots | gust knots | rain 1hr in | rain 24hr in | rain mn in | humidity % | barometer mb |
| 20260505153305 | 78 | 264 | 7.8 | 14.8 | 0.00 | 0.00 | 0.00 | 42 | 1010.2 |
| 20260505152805 | 78 | 223 | 8.7 | 15.6 | 0.00 | 0.00 | 0.00 | 41 | 1010.2 |
| 20260505152305 | 78 | 224 | 6.1 | 10.4 | 0.00 | 0.00 | 0.00 | 44 | 1010.3 |
| 20260505151805 | 77 | 244 | 4.3 | 11.3 | 0.00 | 0.00 | 0.00 | 45 | 1010.3 |
| 20260505150305 | 76 | 250 | 7.8 | 13.0 | 0.00 | 0.00 | 0.00 | 46 | 1010.4 |
| 20260505140305 | 72 | 215 | 6.1 | 15.6 | 0.00 | 0.00 | 0.00 | 51 | 1010.7 |
| 20260505130305 | 66 | 201 | 5.2 | 12.2 | 0.00 | 0.00 | 0.00 | 58 | 1011.2 |
| 20260505124805 | 65 | 203 | 4.3 | 11.3 | 0.00 | 0.00 | 0.00 | 58 | 1011.3 |
| 20260505124304 | 65 | 195 | 7.8 | 13.9 | 0.00 | 0.00 | 0.00 | 59 | 1011.3 |
| 20260505123305 | 64 | 202 | 8.7 | 14.8 | 0.00 | 0.00 | 0.00 | 59 | 1011.1 |
| 20260505122805 | 64 | 183 | 6.1 | 10.4 | 0.00 | 0.00 | 0.00 | 59 | 1011.1 |
| 20260505122306 | 64 | 220 | 1.7 | 8.7 | 0.00 | 0.00 | 0.00 | 60 | 1011.0 |
| 20260505121304 | 63 | 181 | 3.5 | 7.0 | 0.00 | 0.00 | 0.00 | 60 | 1010.9 |
| 20260505120805 | 63 | 181 | 4.3 | 10.4 | 0.00 | 0.00 | 0.00 | 62 | 1010.9 |
| 20260505115804 | 63 | 193 | 2.6 | 5.2 | 0.00 | 0.00 | 0.00 | 62 | 1011.0 |
| 20260505115305 | 62 | 342 | 2.6 | 7.0 | 0.00 | 0.00 | 0.00 | 63 | 1010.9 |
| 20260505114805 | 62 | 249 | 1.7 | 2.6 | 0.00 | 0.00 | 0.00 | 63 | 1011.0 |
| 20260505114305 | 62 | 329 | 1.7 | 4.3 | 0.00 | 0.00 | 0.00 | 63 | 1011.1 |
| 20260505113305 | 61 | 5 | 1.7 | 7.0 | 0.00 | 0.00 | 0.00 | 64 | 1010.8 |
| 20260505112805 | 61 | 248 | 1.7 | 10.4 | 0.00 | 0.00 | 0.00 | 64 | 1010.6 |
| 20260505111805 | 61 | 221 | 1.7 | 2.6 | 0.00 | 0.00 | 0.00 | 64 | 1010.6 |
| 20260505111305 | 61 | 323 | 1.7 | 4.3 | 0.00 | 0.00 | 0.00 | 65 | 1010.7 |
| 20260505110804 | 60 | 297 | 3.5 | 10.4 | 0.00 | 0.00 | 0.00 | 65 | 1010.7 |
| 20260505110304 | 60 | 244 | 3.5 | 10.4 | 0.00 | 0.00 | 0.00 | 65 | 1010.5 |
| 20260505100804 | 60 | 197 | 4.3 | 10.4 | 0.00 | 0.00 | 0.00 | 66 | 1010.0 |
| 20260505100304 | 60 | 219 | 5.2 | 10.4 | 0.00 | 0.00 | 0.00 | 66 | 1009.9 |
| 20260505095804 | 60 | 205 | 6.1 | 11.3 | 0.00 | 0.00 | 0.00 | 65 | 1009.9 |
| 20260505095305 | 60 | 189 | 5.2 | 13.9 | 0.00 | 0.00 | 0.00 | 65 | 1009.8 |
| 20260505094804 | 60 | 193 | 5.2 | 10.4 | 0.00 | 0.00 | 0.00 | 65 | 1009.8 |
| 20260505094304 | 60 | 149 | 4.3 | 10.4 | 0.00 | 0.00 | 0.00 | 64 | 1009.9 |
| 20260505093805 | 60 | 209 | 3.5 | 10.4 | 0.00 | 0.00 | 0.00 | 65 | 1010.0 |
| 20260505093304 | 60 | 233 | 5.2 | 10.4 | 0.00 | 0.00 | 0.00 | 64 | 1009.9 |
| 20260505092805 | 60 | 225 | 2.6 | 7.8 | 0.00 | 0.00 | 0.00 | 64 | 1009.9 |
| 20260505092305 | 60 | 203 | 3.5 | 7.8 | 0.00 | 0.00 | 0.00 | 64 | 1010.0 |
| 20260505091804 | 60 | 218 | 2.6 | 6.1 | 0.00 | 0.00 | 0.00 | 64 | 1009.9 |
| 20260505091304 | 60 | 184 | 3.5 | 6.1 | 0.00 | 0.00 | 0.00 | 65 | 1010.0 |
| 20260505090805 | 60 | 207 | 0.9 | 2.6 | 0.00 | 0.00 | 0.00 | 65 | 1010.0 |
| 20260505090304 | 60 | 330 | 0.9 | 2.6 | 0.00 | 0.00 | 0.00 | 65 | 1010.0 |
| 20260505085804 | 60 | 330 | 0.9 | 2.6 | 0.00 | 0.00 | 0.00 | 64 | 1010.0 |
| 20260505085305 | 60 | 330 | 1.7 | 2.6 | 0.00 | 0.00 | 0.00 | 64 | 1009.9 |
| 20260505084805 | 60 | 188 | 0.9 | 4.3 | 0.00 | 0.00 | 0.00 | 64 | 1010.0 |
| 20260505083305 | 61 | 268 | 1.7 | 2.6 | 0.00 | 0.00 | 0.00 | 62 | 1009.8 |
| 20260505082804 | 61 | 313 | 0.0 | 1.7 | 0.00 | 0.00 | 0.00 | 62 | 1009.8 |
| 20260505081804 | 62 | 0 | 1.7 | 4.3 | 0.00 | 0.00 | 0.00 | 61 | 1009.7 |
| 20260505080805 | 62 | 268 | 1.7 | 5.2 | 0.00 | 0.00 | 0.00 | 60 | 1009.7 |
| 20260505075304 | 61 | 193 | 2.6 | 8.7 | 0.00 | 0.00 | 0.00 | 61 | 1009.7 |
| 20260505074804 | 61 | 234 | 1.7 | 2.6 | 0.00 | 0.00 | 0.00 | 61 | 1009.7 |
| 20260505074304 | 61 | 329 | 0.9 | 1.7 | 0.00 | 0.00 | 0.00 | 61 | 1009.5 |
| 20260505073304 | 61 | 236 | 0.9 | 2.6 | 0.00 | 0.00 | 0.00 | 61 | 1009.6 |
| 20260505072305 | 62 | 186 | 1.7 | 5.2 | 0.00 | 0.00 | 0.00 | 60 | 1009.7 |
| 20260505071804 | 62 | 234 | 3.5 | 7.0 | 0.00 | 0.00 | 0.00 | 60 | 1009.8 |
| 20260505070804 | 62 | 176 | 2.6 | 8.7 | 0.00 | 0.00 | 0.00 | 60 | 1009.8 |
| 20260505070305 | 62 | 172 | 2.6 | 7.8 | 0.00 | 0.00 | 0.00 | 59 | 1009.8 |
| 20260505065804 | 62 | 160 | 5.2 | 10.4 | 0.00 | 0.00 | 0.00 | 59 | 1009.8 |
| 20260505065304 | 62 | 201 | 4.3 | 10.4 | 0.00 | 0.00 | 0.00 | 59 | 1009.8 |
| 20260505064805 | 62 | 219 | 3.5 | 7.0 | 0.00 | 0.00 | 0.00 | 59 | 1009.8 |
| 20260505063804 | 62 | 177 | 3.5 | 10.4 | 0.00 | 0.00 | 0.00 | 58 | 1009.9 |
| 20260505062804 | 62 | 205 | 4.3 | 12.2 | 0.00 | 0.00 | 0.00 | 58 | 1009.9 |
| 20260505061804 | 62 | 187 | 7.0 | 12.2 | 0.00 | 0.00 | 0.00 | 57 | 1009.6 |
| 20260505061305 | 62 | 164 | 5.2 | 11.3 | 0.00 | 0.00 | 0.00 | 57 | 1009.8 |
| 20260505060804 | 62 | 198 | 6.1 | 12.2 | 0.00 | 0.00 | 0.00 | 57 | 1009.8 |
| 20260505060304 | 62 | 177 | 4.3 | 7.8 | 0.00 | 0.00 | 0.00 | 57 | 1009.8 |
| 20260505055805 | 62 | 211 | 5.2 | 7.8 | 0.00 | 0.00 | 0.00 | 56 | 1009.8 |
| 20260505055305 | 62 | 184 | 6.1 | 13.0 | 0.00 | 0.00 | 0.00 | 56 | 1009.7 |
| 20260505054804 | 62 | 201 | 7.0 | 12.2 | 0.00 | 0.00 | 0.00 | 56 | 1009.7 |
| 20260505053804 | 62 | 199 | 4.3 | 8.7 | 0.00 | 0.00 | 0.00 | 56 | 1009.6 |
| 20260505053304 | 63 | 209 | 6.1 | 10.4 | 0.00 | 0.00 | 0.00 | 56 | 1009.6 |
| 20260505052804 | 62 | 231 | 5.2 | 10.4 | 0.00 | 0.00 | 0.00 | 56 | 1009.6 |
| 20260505051804 | 62 | 191 | 4.3 | 13.9 | 0.00 | 0.00 | 0.00 | 56 | 1009.7 |
| 20260505051304 | 62 | 206 | 5.2 | 10.4 | 0.00 | 0.00 | 0.00 | 55 | 1009.7 |
| 20260505050804 | 62 | 192 | 3.5 | 10.4 | 0.00 | 0.00 | 0.00 | 55 | 1009.7 |
| 20260505050304 | 62 | 200 | 5.2 | 11.3 | 0.00 | 0.00 | 0.00 | 54 | 1009.7 |
| 20260505041304 | 64 | 241 | 4.3 | 12.2 | 0.00 | 0.00 | 0.00 | 50 | 1009.7 |
| 20260505040818 | 64 | 197 | 7.8 | 12.2 | 0.00 | 0.00 | 0.00 | 50 | 1009.6 |
| 20260505040304 | 64 | 192 | 4.3 | 8.7 | 0.00 | 0.00 | 0.00 | 49 | 1009.6 |
| 20260505035804 | 64 | 218 | 4.3 | 10.4 | 0.00 | 0.00 | 0.00 | 49 | 1009.5 |
| 20260505035304 | 64 | 206 | 5.2 | 12.2 | 0.00 | 0.00 | 0.00 | 49 | 1009.5 |
| 20260505034804 | 64 | 210 | 4.3 | 13.0 | 0.00 | 0.00 | 0.00 | 49 | 1009.4 |
| 20260505034304 | 64 | 208 | 5.2 | 13.0 | 0.00 | 0.00 | 0.00 | 48 | 1009.3 |
| 20260505033804 | 64 | 192 | 4.3 | 13.0 | 0.00 | 0.00 | 0.00 | 48 | 1009.3 |
| 20260505033304 | 65 | 163 | 2.6 | 10.4 | 0.00 | 0.00 | 0.00 | 48 | 1009.2 |
| 20260505032803 | 65 | 179 | 2.6 | 13.9 | 0.00 | 0.00 | 0.00 | 48 | 1009.2 |
| 20260505032304 | 65 | 202 | 4.3 | 10.4 | 0.00 | 0.00 | 0.00 | 47 | 1009.2 |
| 20260505031804 | 64 | 185 | 6.1 | 13.0 | 0.00 | 0.00 | 0.00 | 48 | 1009.2 |
| 20260505031304 | 64 | 146 | 5.2 | 10.4 | 0.00 | 0.00 | 0.00 | 48 | 1009.3 |
| 20260505030804 | 64 | 149 | 2.6 | 7.8 | 0.00 | 0.00 | 0.00 | 47 | 1009.2 |
| 20260505030303 | 64 | 166 | 4.3 | 10.4 | 0.00 | 0.00 | 0.00 | 48 | 1009.1 |
| 20260505025804 | 64 | 198 | 1.7 | 13.9 | 0.00 | 0.00 | 0.00 | 47 | 1009.1 |
| 20260505025305 | 64 | 157 | 4.3 | 11.3 | 0.00 | 0.00 | 0.00 | 47 | 1009.2 |
| 20260505024804 | 64 | 192 | 3.5 | 12.2 | 0.00 | 0.00 | 0.00 | 47 | 1009.4 |
| 20260505022804 | 64 | 187 | 1.7 | 5.2 | 0.00 | 0.00 | 0.00 | 46 | 1009.5 |
| 20260505022304 | 64 | 129 | 3.5 | 7.8 | 0.00 | 0.00 | 0.00 | 46 | 1009.5 |
| 20260505021804 | 64 | 168 | 2.6 | 8.7 | 0.00 | 0.00 | 0.00 | 46 | 1009.5 |
| 20260505021304 | 65 | 133 | 4.3 | 10.4 | 0.00 | 0.00 | 0.00 | 45 | 1009.6 |
| 20260505020803 | 65 | 140 | 5.2 | 10.4 | 0.00 | 0.00 | 0.00 | 46 | 1009.7 |
| 20260505015804 | 64 | 150 | 4.3 | 12.2 | 0.00 | 0.00 | 0.00 | 46 | 1009.7 |
| 20260505015304 | 64 | 130 | 3.5 | 7.0 | 0.00 | 0.00 | 0.00 | 46 | 1009.7 |
| 20260505014806 | 64 | 136 | 1.7 | 5.2 | 0.00 | 0.00 | 0.00 | 46 | 1009.8 |
| 20260505014307 | 65 | 134 | 3.5 | 7.8 | 0.00 | 0.00 | 0.00 | 46 | 1009.7 |
| 20260505013806 | 65 | 120 | 4.3 | 7.8 | 0.00 | 0.00 | 0.00 | 45 | 1009.7 |
| 20260505013306 | 65 | 179 | 4.3 | 11.3 | 0.00 | 0.00 | 0.00 | 45 | 1009.7 |
| 20260505011806 | 65 | 142 | 5.2 | 10.4 | 0.00 | 0.00 | 0.00 | 45 | 1009.5 |
| 20260505011306 | 66 | 181 | 2.6 | 10.4 | 0.00 | 0.00 | 0.00 | 44 | 1009.5 |
| 20260505010806 | 66 | 152 | 5.2 | 10.4 | 0.00 | 0.00 | 0.00 | 44 | 1009.5 |
| 20260505010306 | 66 | 145 | 6.1 | 13.9 | 0.00 | 0.00 | 0.00 | 44 | 1009.4 |
| 20260505005806 | 66 | 167 | 2.6 | 8.7 | 0.00 | 0.00 | 0.00 | 44 | 1009.4 |
| 20260505005305 | 66 | 191 | 5.2 | 10.4 | 0.00 | 0.00 | 0.00 | 44 | 1009.3 |
| 20260505002806 | 67 | 143 | 4.3 | 11.3 | 0.00 | 0.00 | 0.00 | 43 | 1009.2 |
| 20260505002306 | 66 | 155 | 3.5 | 12.2 | 0.00 | 0.00 | 0.00 | 43 | 1009.1 |
| 20260505001805 | 66 | 174 | 2.6 | 8.7 | 0.00 | 0.00 | 0.00 | 44 | 1009.2 |
| 20260505000805 | 67 | 141 | 2.6 | 6.1 | 0.00 | 0.00 | 0.00 | 42 | 1009.1 |
| 20260505000306 | 68 | 149 | 5.2 | 13.0 | 0.00 | 0.00 | 0.00 | 41 | 1009.1 |
| 20260504235805 | 68 | 174 | 4.3 | 7.8 | 0.00 | 0.00 | 0.00 | 41 | 1009.0 |
| 20260504235305 | 68 | 160 | 2.6 | 7.8 | 0.00 | 0.00 | 0.00 | 42 | 1009.0 |
| 20260504234306 | 68 | 157 | 2.6 | 8.7 | 0.00 | 0.00 | 0.00 | 41 | 1008.9 |
| 20260504233805 | 68 | 194 | 5.2 | 10.4 | 0.00 | 0.00 | 0.00 | 40 | 1008.9 |
| 20260504232806 | 69 | 156 | 7.0 | 12.2 | 0.00 | 0.00 | 0.00 | 40 | 1008.8 |
| 20260504232305 | 69 | 205 | 5.2 | 8.7 | 0.00 | 0.00 | 0.00 | 40 | 1008.9 |
| 20260504231805 | 69 | 161 | 4.3 | 7.8 | 0.00 | 0.00 | 0.00 | 40 | 1008.8 |
| 20260504231305 | 69 | 174 | 5.2 | 10.4 | 0.00 | 0.00 | 0.00 | 39 | 1008.8 |
| 20260504230806 | 69 | 146 | 5.2 | 11.3 | 0.00 | 0.00 | 0.00 | 39 | 1008.8 |
| 20260504230306 | 69 | 162 | 4.3 | 13.0 | 0.00 | 0.00 | 0.00 | 39 | 1008.8 |
| 20260504225805 | 70 | 161 | 7.8 | 13.0 | 0.00 | 0.00 | 0.00 | 38 | 1008.8 |
| 20260504225306 | 70 | 169 | 7.0 | 14.8 | 0.00 | 0.00 | 0.00 | 38 | 1008.8 |
| 20260504224806 | 70 | 171 | 8.7 | 14.8 | 0.00 | 0.00 | 0.00 | 37 | 1008.8 |
| 20260504223805 | 70 | 161 | 5.2 | 10.4 | 0.00 | 0.00 | 0.00 | 39 | 1008.8 |
| 20260504222805 | 71 | 201 | 6.1 | 17.4 | 0.00 | 0.00 | 0.00 | 38 | 1008.8 |
| 20260504222305 | 71 | 159 | 3.5 | 11.3 | 0.00 | 0.00 | 0.00 | 37 | 1008.7 |
| 20260504221806 | 72 | 132 | 5.2 | 10.4 | 0.00 | 0.00 | 0.00 | 36 | 1008.7 |
| 20260504220806 | 72 | 202 | 7.0 | 17.4 | 0.00 | 0.00 | 0.00 | 35 | 1008.7 |
| 20260504220305 | 72 | 218 | 3.5 | 8.7 | 0.00 | 0.00 | 0.00 | 36 | 1008.7 |
| 20260504215806 | 72 | 228 | 4.3 | 8.7 | 0.00 | 0.00 | 0.00 | 34 | 1008.8 |
| 20260504215306 | 72 | 232 | 2.6 | 8.7 | 0.00 | 0.00 | 0.00 | 36 | 1008.8 |
| 20260504214805 | 72 | 214 | 4.3 | 11.3 | 0.00 | 0.00 | 0.00 | 33 | 1008.9 |
| 20260504214305 | 73 | 252 | 6.1 | 13.0 | 0.00 | 0.00 | 0.00 | 34 | 1008.9 |
| 20260504213805 | 73 | 247 | 4.3 | 11.3 | 0.00 | 0.00 | 0.00 | 36 | 1008.7 |
| 20260504213305 | 73 | 200 | 4.3 | 7.8 | 0.00 | 0.00 | 0.00 | 36 | 1008.9 |
| 20260504212805 | 73 | 240 | 5.2 | 13.9 | 0.00 | 0.00 | 0.00 | 35 | 1008.9 |
| 20260504212305 | 73 | 233 | 7.0 | 11.3 | 0.00 | 0.00 | 0.00 | 35 | 1008.9 |
| 20260504211806 | 73 | 211 | 5.2 | 13.0 | 0.00 | 0.00 | 0.00 | 34 | 1008.9 |
| 20260504211305 | 73 | 250 | 3.5 | 11.3 | 0.00 | 0.00 | 0.00 | 33 | 1008.9 |
| 20260504210306 | 73 | 305 | 1.7 | 5.2 | 0.00 | 0.00 | 0.00 | 34 | 1008.9 |
| 20260504205305 | 73 | 212 | 6.1 | 15.6 | 0.00 | 0.00 | 0.00 | 35 | 1009.0 |
| 20260504204806 | 73 | 273 | 7.0 | 14.8 | 0.00 | 0.00 | 0.00 | 34 | 1009.2 |
| 20260504204306 | 73 | 163 | 7.0 | 12.2 | 0.00 | 0.00 | 0.00 | 35 | 1009.1 |
| 20260504203806 | 73 | 181 | 5.2 | 11.3 | 0.00 | 0.00 | 0.00 | 34 | 1009.1 |
| 20260504203305 | 73 | 263 | 6.1 | 12.2 | 0.00 | 0.00 | 0.00 | 34 | 1009.1 |
| 20260504202806 | 72 | 266 | 6.1 | 10.4 | 0.00 | 0.00 | 0.00 | 34 | 1009.2 |
| 20260504202305 | 72 | 238 | 8.7 | 14.8 | 0.00 | 0.00 | 0.00 | 35 | 1009.2 |
| 20260504201805 | 72 | 220 | 8.7 | 15.6 | 0.00 | 0.00 | 0.00 | 36 | 1009.3 |
| 20260504201305 | 73 | 225 | 8.7 | 17.4 | 0.00 | 0.00 | 0.00 | 34 | 1009.4 |
| 20260504200805 | 73 | 242 | 6.1 | 13.9 | 0.00 | 0.00 | 0.00 | 33 | 1009.5 |
| 20260504200305 | 73 | 250 | 6.1 | 13.0 | 0.00 | 0.00 | 0.00 | 35 | 1009.6 |
| 20260504195806 | 73 | 280 | 7.8 | 19.1 | 0.00 | 0.00 | 0.00 | 34 | 1009.7 |
| 20260504195305 | 74 | 267 | 5.2 | 10.4 | 0.00 | 0.00 | 0.00 | 36 | 1009.7 |
| 20260504194805 | 74 | 240 | 4.3 | 12.2 | 0.00 | 0.00 | 0.00 | 34 | 1009.8 |
| 20260504193305 | 73 | 240 | 7.8 | 13.9 | 0.00 | 0.00 | 0.00 | 34 | 1009.9 |
| 20260504192806 | 73 | 275 | 6.1 | 13.0 | 0.00 | 0.00 | 0.00 | 35 | 1010.0 |
| 20260504192305 | 73 | 209 | 4.3 | 7.0 | 0.00 | 0.00 | 0.00 | 35 | 1010.0 |
| 20260504191805 | 73 | 266 | 5.2 | 14.8 | 0.00 | 0.00 | 0.00 | 35 | 1010.1 |
| 20260504191305 | 73 | 259 | 6.1 | 14.8 | 0.00 | 0.00 | 0.00 | 38 | 1010.2 |
| 20260504190805 | 72 | 306 | 4.3 | 10.4 | 0.00 | 0.00 | 0.00 | 37 | 1010.2 |
| 20260504190305 | 73 | 181 | 6.1 | 12.2 | 0.00 | 0.00 | 0.00 | 35 | 1010.2 |
| 20260504185806 | 73 | 239 | 8.7 | 17.4 | 0.00 | 0.00 | 0.00 | 34 | 1010.3 |
| 20260504185305 | 73 | 242 | 7.8 | 13.9 | 0.00 | 0.00 | 0.00 | 35 | 1010.3 |
| 20260504184805 | 72 | 227 | 5.2 | 13.9 | 0.00 | 0.00 | 0.00 | 38 | 1010.3 |
| 20260504184305 | 72 | 180 | 3.5 | 10.4 | 0.00 | 0.00 | 0.00 | 37 | 1010.4 |
| 20260504183805 | 72 | 284 | 7.0 | 10.4 | 0.00 | 0.00 | 0.00 | 35 | 1010.5 |
| 20260504183305 | 72 | 273 | 4.3 | 10.4 | 0.00 | 0.00 | 0.00 | 38 | 1010.4 |
| 20260504182805 | 72 | 255 | 7.0 | 12.2 | 0.00 | 0.00 | 0.00 | 37 | 1010.6 |
| 20260504182306 | 72 | 201 | 6.1 | 11.3 | 0.00 | 0.00 | 0.00 | 37 | 1010.7 |
| 20260504181805 | 73 | 185 | 4.3 | 10.4 | 0.00 | 0.00 | 0.00 | 37 | 1010.7 |
| 20260504181306 | 72 | 248 | 2.6 | 11.3 | 0.00 | 0.00 | 0.00 | 40 | 1010.6 |
| 20260504180806 | 71 | 244 | 7.8 | 14.8 | 0.00 | 0.00 | 0.00 | 36 | 1010.8 |
| 20260504175805 | 71 | 173 | 7.8 | 13.0 | 0.00 | 0.00 | 0.00 | 41 | 1011.0 |
| 20260504175306 | 71 | 229 | 7.0 | 13.9 | 0.00 | 0.00 | 0.00 | 38 | 1011.0 |
| 20260504174805 | 71 | 246 | 7.0 | 13.9 | 0.00 | 0.00 | 0.00 | 38 | 1011.1 |
| 20260504174305 | 70 | 257 | 7.8 | 13.0 | 0.00 | 0.00 | 0.00 | 37 | 1011.1 |
| 20260504173805 | 70 | 268 | 6.1 | 13.9 | 0.00 | 0.00 | 0.00 | 36 | 1011.1 |
| 20260504172805 | 70 | 270 | 6.1 | 12.2 | 0.00 | 0.00 | 0.00 | 38 | 1011.2 |
| 20260504171805 | 70 | 260 | 9.6 | 17.4 | 0.00 | 0.00 | 0.00 | 37 | 1011.4 |
| 20260504171305 | 71 | 220 | 7.8 | 17.4 | 0.00 | 0.00 | 0.00 | 38 | 1011.5 |
| 20260504170805 | 70 | 144 | 3.5 | 7.8 | 0.00 | 0.00 | 0.00 | 40 | 1011.5 |
| 20260504170304 | 70 | 251 | 5.2 | 13.0 | 0.00 | 0.00 | 0.00 | 37 | 1011.6 |
| 20260504160306 | 67 | 228 | 7.8 | 13.0 | 0.00 | 0.00 | 0.00 | 37 | 1012.5 |